QPF
0.00 0.00 0.00 0.00 0.00 0.00 0.00 0.00 0.00 0.00 0.00 0.00 0.00 0.00 0.00 0.00 0.00 0.00 0.00 0.00 0.00 0.00 0.00 0.01 0.02 0.03 0.05 0.08 0.07 0.00 0.00 0.00 0.00 0.00 0.00 0.00 0.00 0.00 0.00 0.00 0.00 0.02 0.01 0.00 0.00 0.00 0.00 0.00 0.00
0.00 0.00 0.00 0.00 0.00 0.00 0.00 0.00 0.00 0.00 0.00 0.00 0.00 0.00 0.00 0.00 0.00 0.00 0.00 0.00 0.00 0.00 0.00 0.01 0.01 0.02 0.03 0.06 0.06 0.05 0.00 0.00 0.00 0.00 0.00 0.00 0.00 0.00 0.00 0.00 0.00 0.03 0.01 0.00 0.00 0.00 0.00 0.00 0.00
0.00 0.00 0.00 0.00 0.00 0.00 0.00 0.00 0.00 0.00 0.00 0.00 0.00 0.00 0.00 0.00 0.00 0.00 0.00 0.00 0.00 0.00 0.04 0.04 0.02 0.03 0.02 0.02 0.02 0.03 0.06 0.05 0.01 0.00 0.00 0.00 0.00 0.00 0.00 0.00 0.00 0.02 0.00 0.00 0.00 0.00 0.00 0.00 0.00
0.00 0.00 0.00 0.00 0.00 0.00 0.00 0.00 0.00 0.00 0.00 0.00 0.00 0.00 0.00 0.00 0.00 0.00 0.00 0.00 0.00 0.00 0.05 0.11 0.03 0.02 0.02 0.01 0.01 0.00 0.02 0.05 0.04 0.00 0.00 0.00 0.00 0.00 0.00 0.00 0.00 0.00 0.00 0.00 0.00 0.00 0.00 0.00 0.00
0.00 0.00 0.00 0.00 0.00 0.00 0.00 0.00 0.00 0.00 0.00 0.00 0.00 0.00 0.00 0.00 0.00 0.00 0.00 0.00 0.00 0.00 0.02 0.02 0.01 0.01 0.01 0.00 0.01 0.02 0.04 0.07 0.08 0.03 0.00 0.00 0.00 0.00 0.00 0.00 0.00 0.00 0.00 0.00 0.00 0.00 0.00 0.00 0.00
0.00 0.00 0.00 0.00 0.00 0.00 0.00 0.00 0.00 0.00 0.00 0.00 0.00 0.00 0.00 0.00 0.00 0.00 0.00 0.00 0.00 0.00 0.00 0.00 0.00 0.01 0.00 0.00 0.00 0.02 0.04 0.04 0.06 0.08 0.07 0.06 0.02 0.00 0.00 0.00 0.00 0.00 0.00 0.00 0.00 0.00 0.00 0.00 0.00
0.00 0.00 0.00 0.00 0.00 0.00 0.00 0.00 0.00 0.00 0.00 0.00 0.00 0.00 0.00 0.00 0.00 0.00 0.00 0.00 0.00 0.00 0.00 0.00 0.00 0.00 0.00 0.00 0.00 0.00 0.00 0.01 0.01 0.01 0.02 0.02 0.02 0.01 0.01 0.02 0.01 0.00 0.00 0.02 0.01 0.00 0.00 0.00 0.00
0.00 0.00 0.00 0.00 0.00 0.00 0.00 0.00 0.00 0.00 0.00 0.00 0.00 0.00 0.00 0.00 0.00 0.00 0.00 0.00 0.00 0.00 0.00 0.00 0.00 0.00 0.00 0.00 0.00 0.00 0.00 0.00 0.00 0.00 0.00 0.00 0.00 0.00 0.00 0.00 0.00 0.01 0.01 0.03 0.04 0.03 0.01 0.00 0.00
0.00 0.00 0.00 0.00 0.00 0.00 0.00 0.00 0.00 0.00 0.00 0.00 0.00 0.00 0.00 0.00 0.00 0.00 0.00 0.00 0.00 0.00 0.00 0.00 0.00 0.00 0.00 0.00 0.00 0.00 0.00 0.00 0.00 0.01 0.02 0.01 0.01 0.02 0.02 0.00 0.00 0.00 0.00 0.01 0.02 0.04 0.05 0.02 0.00
0.00 0.00 0.00 0.00 0.00 0.00 0.00 0.00 0.00 0.00 0.00 0.00 0.00 0.00 0.00 0.00 0.00 0.00 0.00 0.00 0.00 0.00 0.00 0.00 0.00 0.00 0.00 0.00 0.00 0.00 0.00 0.00 0.00 0.00 0.01 0.04 0.05 0.04 0.03 0.01 0.00 0.00 0.00 0.00 0.01 0.01 0.01 0.01 0.00
0.00 0.00 0.00 0.00 0.00 0.00 0.00 0.00 0.00 0.00 0.00 0.00 0.00 0.00 0.00 0.00 0.00 0.00 0.00 0.00 0.00 0.00 0.00 0.00 0.00 0.00 0.00 0.00 0.00 0.00 0.00 0.00 0.00 0.00 0.00 0.00 0.00 0.03 0.06 0.05 0.02 0.01 0.00 0.00 0.00 0.00 0.02 0.03 0.04
0.00 0.00 0.00 0.00 0.00 0.00 0.00 0.00 0.00 0.00 0.00 0.00 0.00 0.00 0.00 0.00 0.00 0.00 0.00 0.00 0.00 0.00 0.00 0.00 0.00 0.00 0.00 0.00 0.00 0.00 0.00 0.00 0.00 0.00 0.00 0.00 0.00 0.00 0.01 0.02 0.02 0.04 0.03 0.01 0.01 0.00 0.00 0.00 0.01
0.00 0.00 0.00 0.00 0.00 0.00 0.00 0.00 0.00 0.00 0.00 0.00 0.00 0.00 0.00 0.00 0.00 0.00 0.00 0.00 0.00 0.00 0.00 0.00 0.00 0.00 0.00 0.00 0.00 0.00 0.00 0.00 0.00 0.00 0.00 0.00 0.00 0.00 0.00 0.00 0.00 0.00 0.01 0.02 0.03 0.02 0.00 0.00 0.00
0.00 0.00 0.00 0.00 0.00 0.00 0.00 0.00 0.00 0.00 0.00 0.00 0.00 0.00 0.00 0.00 0.00 0.00 0.00 0.00 0.00 0.00 0.00 0.00 0.00 0.00 0.00 0.00 0.00 0.00 0.00 0.00 0.00 0.00 0.00 0.00 0.00 0.00 0.00 0.00 0.00 0.00 0.00 0.01 0.02 0.02 0.01 0.00 0.00
0.00 0.00 0.00 0.00 0.00 0.00 0.00 0.00 0.00 0.00 0.00 0.00 0.00 0.00 0.00 0.00 0.00 0.00 0.00 0.00 0.00 0.00 0.00 0.00 0.00 0.00 0.00 0.00 0.00 0.00 0.00 0.00 0.00 0.00 0.00 0.00 0.00 0.00 0.00 0.00 0.00 0.00 0.00 0.00 0.01 0.01 0.02 0.02 0.01
0.00 0.00 0.00 0.00 0.00 0.00 0.00 0.00 0.00 0.00 0.00 0.00 0.00 0.00 0.00 0.00 0.00 0.00 0.00 0.00 0.00 0.00 0.00 0.00 0.00 0.00 0.00 0.00 0.00 0.00 0.00 0.00 0.00 0.00 0.00 0.00 0.00 0.00 0.00 0.00 0.00 0.00 0.00 0.00 0.01 0.01 0.01 0.01 0.01
0.00 0.00 0.00 0.00 0.00 0.00 0.00 0.00 0.00 0.00 0.00 0.00 0.00 0.00 0.00 0.00 0.00 0.00 0.00 0.00 0.00 0.00 0.00 0.00 0.00 0.00 0.00 0.00 0.00 0.00 0.00 0.00 0.00 0.00 0.00 0.00 0.00 0.00 0.00 0.00 0.00 0.00 0.00 0.00 0.00 0.01 0.02 0.02 0.01
0.00 0.00 0.00 0.00 0.00 0.00 0.00 0.00 0.00 0.00 0.00 0.00 0.00 0.00 0.00 0.00 0.00 0.00 0.00 0.00 0.00 0.00 0.00 0.00 0.00 0.00 0.00 0.00 0.00 0.00 0.00 0.00 0.00 0.00 0.00 0.00 0.00 0.00 0.00 0.00 0.00 0.00 0.00 0.00 0.00 0.01 0.02 0.02 0.03
0.00 0.00 0.00 0.00 0.00 0.00 0.00 0.00 0.00 0.00 0.00 0.00 0.00 0.00 0.00 0.00 0.00 0.00 0.00 0.00 0.00 0.00 0.00 0.00 0.00 0.00 0.00 0.00 0.00 0.00 0.00 0.00 0.00 0.00 0.00 0.00 0.00 0.00 0.00 0.00 0.00 0.00 0.00 0.00 0.00 0.00 0.01 0.02 0.03
0.00 0.00 0.00 0.00 0.00 0.00 0.00 0.00 0.00 0.00 0.00 0.00 0.00 0.00 0.00 0.00 0.00 0.00 0.00 0.00 0.00 0.00 0.00 0.00 0.00 0.00 0.00 0.00 0.00 0.00 0.00 0.00 0.00 0.00 0.00 0.00 0.00 0.00 0.00 0.00 0.00 0.00 0.00 0.00 0.00 0.00 0.00 0.01 0.03
0.00 0.00 0.00 0.00 0.00 0.00 0.00 0.00 0.00 0.00 0.00 0.00 0.00 0.00 0.00 0.00 0.00 0.00 0.00 0.00 0.00 0.00 0.00 0.00 0.00 0.00 0.00 0.00 0.00 0.00 0.00 0.00 0.00 0.00 0.00 0.00 0.00 0.00 0.00 0.00 0.00 0.00 0.00 0.00 0.00 0.00 0.00 0.00 0.01
0.00 0.00 0.00 0.00 0.00 0.00 0.00 0.00 0.00 0.00 0.00 0.00 0.00 0.00 0.00 0.00 0.00 0.00 0.00 0.00 0.00 0.00 0.00 0.00 0.00 0.00 0.00 0.00 0.00 0.00 0.00 0.00 0.00 0.00 0.00 0.00 0.00 0.00 0.00 0.00 0.00 0.00 0.00 0.00 0.00 0.02 0.03 0.03 0.01
0.00 0.00 0.00 0.00 0.00 0.00 0.00 0.00 0.00 0.00 0.00 0.00 0.00 0.00 0.00 0.00 0.00 0.00 0.00 0.00 0.00 0.00 0.00 0.00 0.00 0.00 0.00 0.00 0.00 0.00 0.00 0.00 0.00 0.00 0.00 0.00 0.00 0.00 0.00 0.00 0.00 0.00 0.00 0.01 0.01 0.02 0.03 0.03 0.02
0.00 0.00 0.00 0.00 0.00 0.00 0.00 0.00 0.00 0.00 0.00 0.00 0.00 0.00 0.00 0.00 0.00 0.00 0.00 0.00 0.00 0.00 0.00 0.00 0.00 0.00 0.00 0.00 0.00 0.00 0.00 0.00 0.00 0.00 0.00 0.00 0.00 0.00 0.00 0.00 0.00 0.00 0.00 0.00 0.01 0.03 0.02 0.02 0.01
0.00 0.00 0.00 0.00 0.00 0.00 0.00 0.00 0.00 0.00 0.00 0.00 0.00 0.00 0.00 0.00 0.00 0.00 0.00 0.00 0.00 0.00 0.00 0.00 0.00 0.00 0.00 0.00 0.00 0.00 0.00 0.00 0.00 0.00 0.00 0.00 0.00 0.00 0.00 0.00 0.00 0.00 0.00 0.00 0.00 0.01 0.02 0.01 0.00
0.00 0.00 0.00 0.00 0.00 0.00 0.00 0.00 0.00 0.00 0.00 0.00 0.00 0.00 0.00 0.00 0.00 0.00 0.00 0.00 0.00 0.00 0.00 0.00 0.00 0.00 0.00 0.00 0.00 0.00 0.00 0.00 0.00 0.00 0.00 0.00 0.00 0.00 0.00 0.00 0.00 0.00 0.00 0.00 0.00 0.00 0.01 0.01 0.01
0.00 0.00 0.00 0.00 0.00 0.00 0.00 0.00 0.00 0.00 0.00 0.00 0.00 0.00 0.00 0.00 0.00 0.00 0.00 0.00 0.00 0.00 0.00 0.00 0.00 0.00 0.00 0.00 0.00 0.00 0.00 0.00 0.00 0.00 0.00 0.00 0.00 0.00 0.00 0.00 0.00 0.00 0.00 0.00 0.00 0.01 0.01 0.02 0.02
0.00 0.00 0.00 0.00 0.00 0.00 0.00 0.00 0.00 0.00 0.00 0.00 0.00 0.00 0.00 0.00 0.00 0.00 0.00 0.00 0.00 0.00 0.00 0.00 0.00 0.00 0.00 0.00 0.00 0.00 0.00 0.00 0.00 0.00 0.00 0.00 0.00 0.00 0.00 0.00 0.00 0.00 0.00 0.00 0.00 0.00 0.00 0.00 0.00
0.00 0.00 0.00 0.00 0.00 0.00 0.00 0.00 0.00 0.00 0.00 0.00 0.00 0.00 0.00 0.00 0.00 0.00 0.00 0.00 0.00 0.00 0.00 0.00 0.00 0.00 0.00 0.00 0.00 0.00 0.00 0.00 0.00 0.00 0.00 0.00 0.00 0.00 0.00 0.00 0.00 0.00 0.00 0.00 0.00 0.00 0.00 0.00 0.00
0.00 0.00 0.00 0.00 0.00 0.00 0.00 0.00 0.00 0.00 0.00 0.00 0.00 0.00 0.00 0.00 0.00 0.00 0.00 0.00 0.00 0.00 0.00 0.00 0.00 0.00 0.00 0.00 0.00 0.00 0.00 0.00 0.00 0.00 0.00 0.00 0.00 0.00 0.00 0.00 0.00 0.00 0.00 0.00 0.00 0.00 0.00 0.00 0.00
MSLP
1014.20 1014.07 1013.60 1013.00 1012.41 1011.38 1010.38 1010.90 1011.26 1011.32 1011.75 1012.35 1012.48 1012.23 1012.16 1012.93 1013.23 1014.33 1015.65 1016.11 1016.18 1015.89 1015.42 1015.57 1016.09 1016.32 1016.48 1016.62 1016.83 1016.92 1016.89 1016.95 1017.01 1016.97 1016.97 1017.04 1017.08 1017.01 1016.95 1016.91 1016.82 1016.69 1016.73 1016.67 1016.79 1016.77 1016.79 1017.00 1017.09
1013.97 1013.94 1013.50 1012.61 1011.56 1010.35 1010.40 1011.10 1011.19 1011.68 1012.52 1012.93 1013.14 1013.25 1013.20 1014.08 1014.80 1015.45 1015.50 1016.05 1015.96 1015.73 1015.52 1015.29 1016.00 1016.31 1016.51 1016.53 1016.80 1016.85 1016.91 1016.94 1017.05 1017.08 1016.99 1017.00 1017.09 1017.09 1017.04 1016.94 1016.76 1016.77 1016.69 1016.82 1016.93 1016.98 1017.02 1017.12 1017.19
1013.74 1013.74 1012.63 1011.95 1011.19 1009.90 1010.27 1011.27 1011.60 1012.52 1013.10 1013.14 1013.55 1014.10 1014.40 1014.96 1015.57 1015.59 1016.13 1016.05 1015.59 1015.38 1015.33 1015.64 1016.06 1016.36 1016.53 1016.60 1016.56 1016.78 1016.88 1016.86 1017.01 1017.03 1017.11 1017.05 1016.99 1017.03 1017.04 1016.96 1016.79 1016.83 1016.85 1016.93 1017.07 1017.16 1017.16 1017.19 1017.21
1013.27 1013.32 1013.23 1011.95 1011.08 1011.69 1011.29 1011.75 1012.32 1012.85 1013.42 1013.59 1013.68 1014.33 1015.53 1016.28 1016.05 1016.61 1016.57 1016.45 1016.10 1015.92 1015.33 1016.04 1016.31 1016.41 1016.58 1016.71 1016.72 1016.74 1016.81 1016.82 1016.96 1017.01 1017.03 1017.07 1017.01 1017.02 1017.03 1017.01 1016.95 1016.91 1016.99 1017.04 1017.12 1017.20 1017.28 1017.28 1017.28
1013.08 1012.49 1011.94 1011.67 1011.98 1012.41 1012.61 1012.86 1012.99 1012.91 1013.41 1013.67 1014.10 1014.69 1015.57 1016.45 1016.68 1017.02 1016.97 1016.74 1016.51 1016.64 1016.14 1016.48 1016.69 1016.64 1016.68 1016.71 1016.76 1016.80 1016.83 1016.85 1016.90 1016.88 1016.96 1016.98 1016.95 1016.91 1016.98 1017.01 1017.08 1017.04 1017.07 1017.11 1017.19 1017.25 1017.29 1017.30 1017.34
1012.66 1012.08 1011.30 1011.40 1012.33 1013.11 1013.45 1013.80 1013.58 1013.34 1013.90 1014.32 1014.27 1014.71 1015.78 1016.62 1016.74 1017.11 1017.21 1016.84 1016.91 1016.99 1017.13 1017.11 1017.13 1017.10 1016.99 1016.86 1016.82 1016.81 1016.81 1016.83 1016.89 1016.93 1016.86 1016.85 1016.85 1016.86 1016.81 1016.85 1016.88 1016.95 1016.99 1017.04 1017.10 1017.18 1017.24 1017.30 1017.33
1012.31 1011.61 1011.39 1011.72 1012.59 1013.34 1013.86 1014.38 1013.86 1013.91 1014.20 1014.75 1014.88 1014.73 1016.00 1016.50 1017.08 1017.29 1017.26 1017.13 1016.98 1017.18 1017.18 1017.32 1017.21 1017.27 1017.19 1017.22 1017.05 1016.95 1016.88 1016.80 1016.78 1016.76 1016.74 1016.76 1016.73 1016.70 1016.67 1016.62 1016.68 1016.72 1016.77 1016.82 1016.89 1017.00 1017.08 1017.15 1017.24
1013.18 1012.32 1012.27 1012.27 1012.65 1013.58 1014.53 1014.70 1014.99 1014.51 1014.87 1015.64 1015.68 1015.00 1015.77 1016.51 1017.24 1017.46 1017.44 1017.41 1017.36 1017.49 1017.57 1017.62 1017.40 1017.24 1017.14 1017.19 1017.21 1017.15 1017.03 1016.93 1016.82 1016.70 1016.64 1016.62 1016.57 1016.52 1016.52 1016.49 1016.44 1016.47 1016.55 1016.59 1016.67 1016.75 1016.83 1016.94 1017.01
1013.93 1012.73 1012.69 1013.11 1013.19 1014.06 1014.89 1014.77 1015.49 1015.75 1015.21 1015.71 1016.06 1015.97 1016.62 1017.04 1017.44 1017.46 1017.47 1017.53 1017.50 1017.68 1017.88 1017.89 1017.80 1017.56 1017.32 1017.01 1016.95 1017.00 1017.04 1016.88 1016.66 1016.45 1016.38 1016.38 1015.93 1015.50 1015.58 1015.68 1015.98 1016.19 1016.27 1016.28 1016.31 1016.37 1016.51 1016.67 1016.75
1013.76 1013.32 1013.93 1014.63 1014.56 1014.43 1015.15 1015.12 1015.46 1015.54 1015.50 1015.94 1016.33 1016.79 1017.08 1017.27 1017.37 1017.51 1017.70 1017.73 1017.87 1017.93 1018.13 1018.17 1018.02 1017.83 1017.52 1017.17 1017.01 1016.75 1016.65 1016.56 1016.54 1016.27 1015.90 1015.66 1015.49 1015.24 1015.32 1015.51 1015.78 1015.94 1015.93 1015.89 1015.90 1015.93 1016.08 1016.26 1015.83
1014.68 1014.65 1015.27 1015.80 1015.79 1015.58 1015.71 1015.84 1016.04 1015.55 1015.66 1015.79 1016.07 1016.65 1017.13 1017.37 1017.53 1017.72 1017.90 1018.17 1018.37 1018.53 1018.46 1018.48 1018.30 1018.14 1017.82 1017.41 1017.17 1016.65 1016.69 1016.45 1016.12 1016.06 1016.03 1016.00 1015.66 1015.29 1015.21 1015.18 1015.02 1014.96 1015.09 1014.98 1014.87 1014.87 1015.11 1015.08 1015.17
1015.48 1016.41 1016.18 1016.61 1016.76 1016.51 1016.35 1016.35 1016.08 1016.06 1016.19 1016.61 1016.78 1017.10 1017.38 1017.41 1017.55 1017.83 1017.99 1018.22 1018.55 1018.65 1018.70 1018.63 1018.43 1018.12 1017.91 1017.60 1017.05 1016.80 1016.57 1016.50 1016.18 1015.88 1015.78 1015.43 1015.14 1015.00 1014.77 1014.67 1014.51 1014.52 1014.40 1014.16 1013.99 1013.92 1013.80 1013.85 1014.17
1015.77 1016.91 1017.11 1017.39 1017.32 1017.31 1017.17 1016.78 1016.37 1016.27 1016.65 1016.96 1017.12 1017.43 1017.42 1017.55 1017.70 1017.98 1018.26 1018.47 1018.63 1018.72 1018.83 1018.73 1018.57 1018.34 1018.07 1017.83 1017.26 1016.88 1016.55 1016.44 1016.22 1016.17 1015.93 1015.69 1015.21 1014.79 1014.39 1014.15 1014.51 1014.63 1014.01 1013.67 1013.68 1013.74 1013.53 1013.77 1013.59
1016.72 1017.09 1017.46 1017.67 1017.71 1017.79 1017.35 1017.06 1016.91 1016.47 1016.84 1016.91 1017.06 1017.03 1017.26 1017.50 1017.67 1018.02 1018.32 1018.39 1018.57 1018.74 1018.74 1018.83 1018.68 1018.49 1018.32 1017.98 1017.62 1017.07 1016.65 1016.35 1016.17 1015.97 1015.77 1015.65 1015.40 1015.16 1014.79 1014.35 1013.98 1013.76 1014.06 1013.95 1013.24 1013.02 1013.18 1013.57 1013.69
1017.02 1017.21 1017.19 1017.72 1017.85 1017.80 1017.86 1016.94 1016.34 1016.39 1016.83 1016.66 1016.77 1016.89 1017.14 1017.37 1017.74 1017.88 1018.25 1018.43 1018.58 1018.61 1018.83 1018.72 1018.61 1018.44 1018.21 1017.90 1017.61 1017.17 1016.69 1016.38 1015.97 1015.65 1015.35 1015.19 1015.01 1014.80 1014.61 1014.26 1013.87 1013.53 1013.45 1013.51 1013.25 1013.03 1012.92 1013.07 1013.05
1016.83 1016.90 1016.80 1017.80 1017.88 1017.96 1017.63 1016.03 1015.99 1016.46 1016.59 1016.24 1016.37 1016.56 1016.77 1016.96 1017.32 1017.69 1018.13 1018.38 1018.51 1018.61 1018.53 1018.59 1018.49 1018.31 1018.07 1017.83 1017.60 1017.13 1016.65 1016.25 1015.79 1015.41 1015.08 1014.84 1014.59 1014.37 1014.06 1013.74 1013.42 1013.16 1012.92 1012.94 1013.07 1012.97 1012.89 1012.83 1012.78
1016.75 1016.44 1016.84 1017.77 1018.31 1018.09 1017.67 1016.09 1015.96 1016.35 1016.41 1015.92 1015.85 1015.97 1016.14 1016.44 1016.89 1017.33 1017.79 1018.06 1018.18 1018.33 1018.39 1018.34 1018.32 1018.08 1017.89 1017.63 1017.34 1017.01 1016.59 1016.12 1015.59 1015.23 1014.87 1014.64 1014.39 1014.08 1013.80 1013.39 1012.99 1012.81 1012.54 1012.42 1012.39 1012.36 1012.40 1012.45 1012.45
1016.31 1016.71 1017.24 1017.59 1018.43 1018.26 1017.58 1016.41 1015.80 1015.93 1015.96 1015.47 1015.22 1015.15 1015.33 1015.82 1016.21 1016.83 1017.45 1017.84 1018.04 1018.26 1018.36 1018.31 1018.16 1018.02 1017.83 1017.44 1017.03 1016.58 1016.14 1015.70 1015.50 1015.12 1014.75 1014.52 1014.23 1013.98 1013.66 1013.25 1013.02 1012.80 1012.45 1012.20 1012.02 1011.88 1011.82 1011.81 1011.77
1016.96 1016.97 1017.24 1018.19 1018.99 1018.65 1017.18 1016.23 1015.00 1014.86 1014.87 1014.65 1014.40 1014.51 1014.85 1015.26 1015.99 1016.73 1017.36 1017.75 1018.07 1018.24 1018.27 1018.23 1018.12 1017.95 1017.83 1017.39 1017.14 1016.75 1016.28 1016.09 1015.57 1014.91 1014.74 1014.44 1013.98 1013.64 1013.39 1013.11 1012.91 1012.71 1012.32 1011.94 1011.79 1011.66 1011.37 1011.05 1011.35
1017.87 1017.68 1018.15 1018.77 1019.13 1018.81 1017.44 1015.51 1014.37 1013.85 1013.54 1013.72 1013.94 1014.12 1014.58 1015.25 1016.00 1016.72 1017.24 1017.61 1017.89 1018.10 1018.11 1018.08 1017.96 1017.91 1017.72 1017.51 1017.65 1017.44 1016.77 1016.10 1015.82 1015.15 1014.51 1014.13 1013.74 1013.31 1012.93 1012.68 1012.44 1012.30 1011.97 1011.66 1011.42 1011.23 1010.97 1010.60 1010.65
1019.10 1018.83 1019.05 1019.33 1019.25 1019.23 1018.33 1015.18 1013.47 1013.32 1013.55 1013.83 1014.11 1014.37 1014.82 1015.14 1015.66 1016.36 1016.92 1017.21 1017.59 1017.72 1017.87 1017.91 1017.90 1017.83 1017.64 1017.67 1017.57 1017.29 1016.72 1016.02 1015.68 1015.23 1014.86 1014.04 1013.60 1013.11 1012.71 1012.34 1012.15 1011.95 1011.77 1011.45 1011.16 1010.98 1010.78 1010.31 1010.07
1019.98 1020.42 1020.21 1019.99 1019.62 1019.36 1018.97 1016.21 1013.66 1012.71 1012.94 1013.15 1013.31 1013.93 1014.47 1015.09 1015.71 1016.11 1016.60 1016.88 1017.13 1017.46 1017.78 1017.86 1017.79 1017.55 1017.45 1017.50 1017.37 1017.16 1016.73 1016.23 1015.83 1015.44 1014.96 1014.23 1013.44 1012.87 1012.53 1012.21 1011.85 1011.56 1011.35 1011.11 1010.92 1010.82 1010.79 1010.54 1010.05
1021.21 1021.15 1020.95 1020.64 1020.17 1020.23 1018.90 1018.01 1013.92 1013.35 1012.37 1012.26 1012.65 1013.26 1014.06 1014.71 1015.27 1015.70 1016.20 1016.61 1016.97 1017.36 1017.54 1017.61 1017.46 1017.29 1017.23 1017.17 1017.18 1017.11 1016.71 1016.34 1015.87 1015.28 1014.77 1014.40 1013.82 1012.96 1012.48 1012.13 1011.82 1011.47 1011.08 1010.86 1010.55 1010.32 1010.34 1010.35 1010.36
1021.81 1021.56 1021.20 1020.88 1020.41 1019.99 1019.19 1018.42 1014.78 1013.13 1012.67 1012.64 1012.91 1013.26 1013.91 1014.57 1015.16 1015.67 1016.09 1016.47 1016.70 1017.02 1017.24 1017.26 1017.12 1016.99 1016.98 1016.95 1016.84 1016.78 1016.66 1016.33 1015.97 1015.59 1015.02 1014.34 1013.90 1013.35 1012.81 1012.43 1011.87 1011.52 1010.99 1010.71 1010.32 1010.09 1009.98 1009.77 1009.82
1022.00 1021.28 1020.81 1020.84 1020.52 1019.63 1019.61 1018.83 1014.55 1013.18 1013.08 1013.10 1013.06 1013.43 1013.95 1014.45 1014.94 1015.26 1015.54 1015.91 1016.23 1016.48 1016.70 1016.79 1016.72 1016.59 1016.73 1016.74 1016.70 1016.61 1016.49 1016.43 1016.19 1015.83 1015.25 1014.66 1014.06 1013.55 1013.21 1012.83 1012.42 1011.64 1011.19 1010.77 1010.39 1010.19 1009.94 1009.69 1009.66
1021.91 1021.55 1021.11 1020.72 1020.31 1019.61 1019.55 1017.49 1013.86 1013.44 1013.48 1013.42 1013.53 1013.71 1014.02 1014.34 1014.63 1014.88 1015.14 1015.43 1015.63 1015.82 1016.05 1016.19 1016.31 1016.31 1016.42 1016.42 1016.42 1016.36 1016.10 1015.98 1015.98 1015.67 1015.18 1014.80 1014.49 1014.04 1013.59 1013.01 1012.53 1011.93 1011.40 1011.11 1010.67 1010.42 1010.16 1010.04 1009.62
1022.19 1021.92 1022.25 1021.68 1021.56 1020.35 1017.82 1016.39 1014.02 1013.10 1012.95 1013.16 1013.31 1013.57 1013.66 1013.93 1014.22 1014.39 1014.62 1014.83 1014.93 1015.11 1015.30 1015.56 1015.78 1015.88 1015.97 1016.01 1016.04 1015.95 1015.75 1015.72 1015.68 1015.47 1015.10 1014.83 1014.51 1014.10 1013.52 1012.95 1012.39 1012.10 1011.63 1011.19 1010.72 1010.43 1010.16 1009.92 1009.66
1022.55 1022.66 1022.34 1021.65 1020.81 1019.28 1017.15 1016.42 1014.67 1013.40 1012.93 1012.81 1012.97 1013.14 1013.35 1013.55 1013.75 1013.86 1014.04 1014.17 1014.28 1014.49 1014.69 1014.96 1015.14 1015.27 1015.32 1015.37 1015.38 1015.42 1015.29 1015.31 1015.34 1015.08 1014.81 1014.67 1014.36 1014.03 1013.54 1013.06 1012.57 1012.18 1011.74 1011.24 1010.91 1010.59 1010.25 1009.96 1009.75
1022.77 1022.31 1022.28 1021.99 1021.09 1019.55 1017.58 1015.00 1013.99 1013.75 1013.53 1013.25 1013.00 1013.11 1013.19 1013.24 1013.25 1013.27 1013.32 1013.47 1013.62 1013.85 1014.07 1014.25 1014.46 1014.57 1014.61 1014.65 1014.81 1014.88 1014.89 1014.96 1015.02 1014.78 1014.56 1014.43 1014.25 1013.90 1013.67 1013.10 1012.69 1012.38 1011.94 1011.63 1011.15 1010.88 1010.51 1010.21 1010.37
1022.19 1021.83 1021.64 1021.11 1020.74 1019.91 1018.88 1015.37 1013.78 1013.67 1013.53 1013.40 1013.07 1013.02 1012.95 1012.97 1012.93 1012.83 1012.81 1012.86 1012.95 1012.87 1013.01 1013.25 1013.46 1013.64 1013.76 1013.90 1014.14 1014.34 1014.51 1014.57 1014.60 1014.45 1014.37 1014.20 1014.07 1013.97 1013.70 1013.25 1012.94 1012.64 1012.17 1011.96 1011.61 1011.27 1011.08 1010.94 1010.66
Thickness
5718 5724 5730 5733 5719 5723 5726 5727 5737 5737 5740 5745 5748 5750 5752 5746 5742 5734 5744 5743 5744 5747 5750 5748 5744 5741 5740 5739 5738 5737 5737 5736 5734 5734 5733 5732 5731 5732 5733 5733 5734 5736 5734 5734 5733 5732 5731 5729 5728
5716 5722 5726 5725 5718 5722 5728 5731 5732 5740 5739 5743 5742 5743 5743 5731 5740 5736 5741 5743 5744 5746 5747 5749 5744 5741 5739 5740 5736 5736 5734 5734 5733 5732 5732 5731 5729 5729 5729 5730 5731 5732 5732 5730 5729 5728 5728 5726 5725
5716 5720 5720 5719 5720 5732 5729 5730 5735 5734 5737 5738 5734 5738 5735 5728 5734 5738 5739 5741 5745 5747 5747 5745 5743 5739 5737 5737 5737 5734 5733 5732 5731 5730 5730 5729 5729 5729 5728 5728 5729 5728 5728 5726 5725 5723 5723 5723 5722
5712 5713 5711 5713 5716 5713 5727 5730 5732 5729 5731 5736 5737 5728 5728 5729 5733 5732 5735 5736 5740 5741 5745 5741 5738 5736 5735 5734 5734 5733 5731 5731 5729 5729 5728 5728 5728 5727 5727 5726 5727 5726 5725 5723 5722 5720 5719 5718 5718
5709 5712 5703 5705 5704 5709 5718 5723 5728 5728 5728 5730 5731 5721 5721 5725 5729 5727 5728 5732 5734 5733 5736 5733 5733 5732 5732 5731 5731 5730 5729 5728 5727 5726 5726 5726 5725 5725 5724 5724 5723 5723 5722 5721 5719 5717 5716 5715 5714
5697 5709 5705 5702 5701 5703 5710 5714 5721 5726 5723 5721 5726 5724 5719 5724 5725 5724 5724 5728 5728 5727 5726 5726 5727 5727 5727 5727 5726 5726 5726 5725 5724 5724 5724 5724 5723 5723 5722 5722 5721 5720 5719 5718 5716 5714 5713 5711 5710
5696 5704 5704 5706 5698 5698 5704 5709 5717 5719 5719 5715 5722 5718 5716 5719 5720 5721 5722 5723 5723 5722 5721 5720 5721 5721 5722 5721 5721 5721 5721 5722 5722 5721 5721 5721 5720 5720 5720 5719 5718 5717 5716 5715 5714 5712 5710 5708 5706
5690 5698 5690 5699 5698 5695 5698 5703 5705 5713 5709 5712 5714 5715 5710 5716 5715 5716 5716 5716 5716 5714 5713 5713 5714 5715 5716 5716 5716 5716 5717 5717 5717 5718 5718 5718 5717 5717 5717 5716 5715 5714 5712 5711 5710 5708 5706 5705 5703
5680 5689 5687 5687 5696 5692 5695 5700 5698 5701 5708 5706 5706 5711 5710 5711 5710 5710 5709 5709 5709 5708 5706 5706 5707 5708 5710 5712 5712 5712 5711 5712 5713 5714 5714 5714 5716 5718 5717 5716 5713 5710 5709 5707 5706 5705 5702 5700 5700
5676 5685 5681 5681 5687 5694 5691 5698 5696 5699 5701 5699 5700 5702 5704 5705 5704 5702 5700 5700 5700 5700 5699 5699 5700 5701 5703 5705 5706 5707 5707 5708 5708 5709 5710 5711 5712 5712 5712 5710 5708 5706 5704 5704 5703 5702 5700 5698 5699
5663 5670 5668 5667 5675 5686 5685 5687 5689 5697 5694 5700 5699 5698 5697 5697 5696 5695 5694 5692 5690 5691 5692 5691 5693 5693 5695 5697 5698 5701 5701 5702 5704 5704 5704 5704 5705 5706 5706 5705 5705 5704 5704 5702 5702 5701 5699 5698 5697
5651 5650 5662 5661 5665 5673 5678 5681 5685 5688 5690 5690 5691 5690 5689 5690 5690 5688 5688 5686 5684 5683 5684 5685 5685 5687 5688 5690 5693 5695 5696 5696 5698 5699 5700 5701 5703 5703 5702 5702 5702 5701 5701 5702 5702 5701 5700 5699 5695
5650 5644 5650 5653 5659 5662 5667 5672 5680 5683 5683 5684 5684 5681 5683 5683 5684 5682 5680 5679 5678 5677 5678 5679 5680 5681 5682 5683 5686 5689 5691 5691 5692 5692 5692 5693 5696 5699 5700 5700 5696 5694 5697 5699 5698 5695 5695 5691 5692
5641 5643 5643 5648 5652 5654 5663 5666 5668 5678 5677 5677 5676 5679 5679 5678 5678 5676 5673 5674 5674 5674 5674 5674 5675 5675 5676 5677 5679 5682 5684 5686 5686 5686 5686 5686 5687 5688 5689 5691 5692 5692 5688 5688 5692 5692 5690 5684 5682
5635 5636 5643 5643 5647 5650 5649 5662 5668 5673 5670 5673 5673 5674 5673 5673 5671 5672 5670 5670 5670 5671 5669 5669 5670 5670 5671 5673 5674 5676 5678 5679 5681 5681 5682 5681 5681 5681 5681 5682 5683 5684 5682 5679 5680 5681 5680 5678 5676
5633 5639 5645 5638 5642 5643 5650 5668 5667 5665 5665 5670 5671 5670 5670 5671 5671 5670 5669 5667 5667 5666 5666 5664 5664 5665 5666 5666 5666 5668 5670 5671 5673 5675 5675 5674 5674 5674 5675 5675 5675 5674 5674 5672 5670 5669 5668 5667 5667
5628 5632 5636 5633 5631 5634 5642 5661 5662 5660 5660 5667 5671 5671 5672 5671 5670 5669 5667 5665 5664 5662 5661 5660 5659 5659 5659 5659 5659 5660 5661 5662 5664 5665 5666 5665 5664 5664 5664 5666 5667 5665 5665 5664 5662 5660 5657 5654 5654
5629 5625 5627 5634 5627 5630 5638 5648 5661 5660 5659 5666 5673 5677 5677 5672 5671 5670 5665 5661 5659 5656 5654 5653 5652 5652 5651 5651 5651 5652 5653 5653 5653 5654 5655 5655 5655 5654 5654 5655 5654 5652 5653 5652 5650 5648 5645 5643 5642
5625 5628 5630 5621 5616 5622 5639 5643 5659 5666 5666 5666 5673 5676 5674 5673 5670 5664 5659 5655 5651 5648 5647 5645 5644 5643 5641 5642 5640 5640 5640 5639 5641 5644 5643 5644 5645 5645 5645 5645 5643 5641 5641 5641 5638 5635 5633 5633 5629
5617 5624 5620 5615 5613 5618 5633 5647 5664 5670 5675 5673 5673 5674 5672 5666 5660 5655 5651 5648 5644 5640 5637 5635 5634 5631 5630 5629 5624 5623 5625 5628 5627 5630 5633 5634 5636 5638 5639 5638 5636 5633 5632 5629 5625 5620 5616 5617 5614
5604 5614 5611 5613 5613 5608 5615 5654 5668 5667 5660 5662 5662 5662 5660 5660 5656 5650 5644 5641 5636 5633 5629 5626 5623 5621 5620 5617 5614 5613 5615 5618 5618 5619 5620 5626 5628 5630 5631 5630 5628 5625 5621 5616 5611 5603 5595 5593 5594
5605 5592 5597 5601 5610 5615 5608 5625 5663 5676 5664 5661 5665 5660 5657 5651 5646 5643 5637 5635 5631 5626 5620 5617 5615 5614 5612 5608 5605 5603 5603 5604 5606 5609 5612 5617 5622 5624 5623 5621 5620 5617 5612 5605 5596 5584 5572 5568 5569
5587 5586 5589 5592 5600 5588 5609 5598 5653 5652 5667 5669 5665 5660 5652 5647 5642 5638 5632 5627 5623 5617 5612 5609 5608 5607 5604 5602 5598 5595 5596 5597 5600 5604 5607 5608 5610 5613 5613 5611 5609 5605 5601 5593 5583 5572 5561 5554 5551
5577 5581 5583 5585 5592 5592 5596 5595 5634 5651 5656 5656 5654 5651 5645 5640 5634 5629 5625 5620 5616 5611 5606 5604 5603 5602 5600 5597 5595 5593 5590 5591 5592 5594 5597 5600 5601 5601 5601 5599 5598 5595 5592 5584 5574 5561 5552 5547 5540
5575 5586 5591 5591 5587 5609 5580 5582 5629 5649 5646 5646 5648 5644 5639 5634 5629 5625 5621 5617 5612 5609 5606 5603 5601 5600 5596 5593 5591 5589 5587 5584 5582 5583 5586 5589 5591 5591 5590 5588 5584 5585 5582 5576 5566 5553 5544 5537 5528
5574 5579 5585 5586 5598 5599 5574 5596 5636 5640 5634 5635 5634 5632 5628 5625 5622 5619 5617 5614 5612 5609 5605 5602 5598 5596 5592 5590 5587 5585 5584 5580 5577 5577 5579 5580 5579 5579 5578 5577 5575 5575 5573 5567 5557 5546 5537 5530 5528
5567 5571 5561 5554 5544 5569 5606 5605 5634 5636 5635 5632 5629 5625 5625 5623 5621 5619 5617 5614 5612 5608 5604 5600 5595 5592 5590 5587 5584 5582 5581 5577 5573 5572 5574 5574 5572 5572 5572 5571 5570 5566 5564 5562 5554 5546 5538 5532 5529
5559 5557 5562 5561 5568 5581 5610 5597 5607 5612 5631 5630 5628 5626 5625 5624 5621 5619 5617 5614 5610 5606 5602 5598 5593 5590 5589 5586 5583 5580 5579 5575 5572 5571 5570 5568 5568 5566 5567 5565 5562 5560 5559 5556 5549 5543 5538 5534 5531
5551 5558 5552 5554 5560 5574 5590 5619 5611 5610 5617 5621 5624 5622 5622 5621 5621 5619 5616 5614 5609 5604 5599 5595 5592 5589 5589 5586 5583 5580 5577 5573 5570 5569 5567 5566 5565 5565 5563 5563 5561 5558 5555 5550 5547 5541 5537 5534 5527
5555 5560 5561 5564 5560 5560 5559 5588 5614 5613 5611 5611 5617 5619 5620 5619 5619 5617 5615 5613 5608 5603 5597 5592 5592 5592 5591 5587 5583 5578 5575 5573 5571 5569 5567 5565 5564 5561 5560 5561 5558 5555 5553 5548 5544 5540 5535 5530 5526